Location: Warszawa
(52.2297°N, 21.0122°E)
Time: 00:58:16
(UTC+02:00)

OTV 5 (USA 277) - Visible Passes

Search period start: 25 April 2018 00:00
Search period end: 05 May 2018 00:00
Orbit: 308 x 325 km, 54.5° (Epoch: 23 April)

Date Brightness Start Highest point End Pass type
(mag) Time Alt. Az. Time Alt. Az. Time Alt. Az.
25 Apr ? 21:52:11 10° WNW 21:54:52 53° N 21:55:48 32° ENE visible
25 Apr ? 23:26:33 10° WNW 23:26:41 11° WNW 23:26:41 11° WNW visible
26 Apr ? 20:32:14 10° W 20:34:55 50° N 20:37:34 10° ENE visible
26 Apr ? 22:06:42 10° WNW 22:09:25 72° NNE 22:09:40 64° ENE visible
27 Apr ? 20:46:49 10° WNW 20:49:29 49° N 20:52:08 10° E visible
27 Apr ? 22:21:11 10° WNW 22:23:30 56° W 22:23:30 56° W visible
28 Apr ? 21:01:20 10° WNW 21:04:03 60° NNE 21:06:28 12° E visible
28 Apr ? 22:35:45 10° W 22:37:20 26° WSW 22:37:20 26° WSW visible
29 Apr ? 21:15:50 10° WNW 21:18:34 89° NNE 21:20:19 20° ESE visible
29 Apr ? 22:50:34 10° W 22:51:10 13° WSW 22:51:10 13° WSW visible
30 Apr ? 21:30:21 10° WNW 21:33:00 51° SSW 21:34:09 27° SE visible
01 May ? 21:45:00 10° W 21:47:22 26° SW 21:48:02 23° S visible
02 May ? 22:00:07 10° WSW 22:01:35 14° SW 22:01:56 13° SW visible
03 May ? 20:39:32 10° W 20:42:06 37° SSW 20:44:38 10° SE visible
04 May ? 20:54:20 10° W 20:56:24 19° SW 20:58:25 10° S visible
